DW8084 Weather Reports


time (UTC)temp
C
wind
direction
speed
KPH
gust
KPH
rain 1hr
cm
rain 24hr
cm
rain mn
cm
humidity
%
barometer
mb
20260507152205 12 2 1.6 3.2 0.00 0.00 0.00 77
20260507151205 12 121 0.0 0.0 0.00 0.00 0.00 75
20260507150205 12 135 1.6 4.8 0.00 0.00 0.00 74
20260507145205 12 140 1.6 6.4 0.00 0.00 0.00 74
20260507144205 12 114 1.6 6.4 0.00 0.00 0.00 73
20260507143205 12 105 1.6 12.9 0.00 0.00 0.00 73
20260507142204 13 107 1.6 12.9 0.00 0.00 0.00 71
20260507141205 13 139 1.6 8.0 0.00 0.00 0.00 68
20260507140414 13 184 1.6 6.4 0.00 0.00 0.00 67
20260507135205 13 191 0.0 6.4 0.00 0.00 0.00 68
20260507134204 13 195 1.6 4.8 0.00 0.00 0.00 67
20260507133205 13 188 3.2 8.0 0.00 0.00 0.00 63
20260507132205 13 192 4.8 11.3 0.00 0.00 0.00 62
20260507131204 14 188 4.8 14.5 0.00 0.00 0.00 61
20260507130204 14 181 4.8 9.7 0.00 0.00 0.00 60
20260507125204 14 175 4.8 14.5 0.00 0.00 0.00 59
20260507124204 14 172 4.8 12.9 0.00 0.00 0.00 58
20260507123418 14 177 4.8 11.3 0.00 0.00 0.00 60
20260507122205 14 188 3.2 8.0 0.00 0.00 0.00 58
20260507121415 14 179 3.2 8.0 0.00 0.00 0.00 58
20260507120416 14 172 4.8 11.3 0.00 0.00 0.00 58
20260507115204 14 172 3.2 11.3 0.00 0.00 0.00 61
20260507114205 13 127 3.2 9.7 0.00 0.00 0.00 63
20260507113204 13 105 3.2 8.0 0.00 0.00 0.00 64
20260507112204 13 123 4.8 11.3 0.00 0.00 0.00 65
20260507111415 13 117 3.2 8.0 0.00 0.00 0.00 65
20260507110417 14 111 4.8 11.3 0.00 0.00 0.00 66
20260507105204 14 132 4.8 12.9 0.00 0.00 0.00 66
20260507104205 15 145 4.8 9.7 0.00 0.00 0.00 67
20260507103414 14 136 3.2 12.9 0.00 0.00 0.00 69
20260507102415 14 120 4.8 12.9 0.00 0.00 0.00 69
20260507101416 13 113 4.8 11.3 0.00 0.00 0.00 70
20260507100205 13 108 4.8 12.9 0.00 0.00 0.00 71
20260507095205 12 105 3.2 9.7 0.00 0.00 0.00 73
20260507094204 12 109 3.2 6.4 0.00 0.00 0.00 75
20260507093204 12 101 3.2 9.7 0.00 0.00 0.00 74
20260507092204 11 84 3.2 11.3 0.00 0.00 0.00 76
20260507091204 11 98 4.8 9.7 0.00 0.00 0.00 77
20260507090205 11 127 3.2 9.7 0.00 0.00 0.00 78
20260507085204 11 111 1.6 6.4 0.00 0.00 0.00 79
20260507084414 10 95 1.6 6.4 0.00 0.00 0.00 81
20260507083204 10 106 1.6 6.4 0.00 0.00 0.00 82
20260507082416 9 108 1.6 4.8 0.00 0.00 0.00 83
20260507081204 8 92 1.6 6.4 0.00 0.00 0.00 84
20260507080204 8 86 1.6 6.4 0.00 0.00 0.00 85
20260507075204 8 98 1.6 4.8 0.00 0.00 0.00 86
20260507074205 8 91 1.6 4.8 0.00 0.00 0.00 87
20260507073205 7 88 3.2 8.0 0.00 0.00 0.00 87
20260507072204 7 88 3.2 8.0 0.00 0.00 0.00 87
20260507071205 7 80 1.6 9.7 0.00 0.00 0.00 88
20260507070204 7 79 1.6 4.8 0.00 0.00 0.00 88
20260507065204 7 103 0.0 4.8 0.00 0.00 0.00 88
20260507064205 7 95 0.0 3.2 0.00 0.00 0.00 89
20260507063417 7 96 1.6 4.8 0.00 0.00 0.00 89
20260507062204 7 93 0.0 4.8 0.00 0.00 0.00 89
20260507061204 7 80 1.6 6.4 0.00 0.00 0.00 89
20260507060204 6 81 1.6 4.8 0.00 0.00 0.00 89
20260507055415 6 83 1.6 4.8 0.00 0.00 0.00 90
20260507054416 6 77 1.6 6.4 0.00 0.00 0.00 90
20260507053204 6 81 1.6 6.4 0.00 0.00 0.00 90
20260507052204 6 81 0.0 3.2 0.00 0.00 0.00 90
20260507051414 6 79 3.2 8.0 0.00 0.00 0.00 90
20260507050415 6 81 1.6 4.8 0.00 0.00 0.00 90
20260507045204 6 79 3.2 6.4 0.00 0.00 0.00 90
20260507044204 6 77 3.2 6.4 0.00 0.00 0.00 90
20260507043203 6 78 1.6 6.4 0.00 0.00 0.00 90
20260507042204 6 86 1.6 6.4 0.00 0.00 0.00 89
20260507041203 6 83 1.6 4.8 0.00 0.00 0.00 89
20260507040203 6 76 3.2 8.0 0.00 0.00 0.00 89
20260507035203 6 75 3.2 8.0 0.00 0.00 0.00 89
20260507034203 6 76 3.2 8.0 0.00 0.00 0.00 89
20260507033203 6 78 3.2 6.4 0.00 0.00 0.00 88
20260507032204 6 79 3.2 11.3 0.00 0.00 0.00 88
20260507031415 6 79 3.2 6.4 0.00 0.00 0.00 88
20260507030416 6 79 3.2 8.0 0.00 0.00 0.00 87
20260507025204 6 80 4.8 11.3 0.00 0.00 0.00 87
20260507024203 7 81 3.2 9.7 0.00 0.00 0.00 86
20260507023414 7 79 3.2 9.7 0.00 0.00 0.00 86
20260507022203 7 79 1.6 6.4 0.00 0.00 0.00 86
20260507021203 7 83 3.2 8.0 0.00 0.00 0.00 85
20260507020203 7 83 1.6 6.4 0.00 0.00 0.00 85
20260507015204 7 80 3.2 9.7 0.00 0.00 0.00 85
20260507014204 7 78 4.8 11.3 0.00 0.00 0.00 85
20260507013203 7 81 3.2 9.7 0.00 0.00 0.00 85
20260507012204 7 86 1.6 8.0 0.00 0.00 0.00 85
20260507011417 7 81 3.2 11.3 0.00 0.00 0.00 85
20260507010417 7 81 4.8 11.3 0.00 0.00 0.00 85
20260507005203 7 83 4.8 14.5 0.00 0.00 0.00 85
20260507004414 7 84 4.8 14.5 0.00 0.00 0.00 85
20260507003204 7 86 4.8 12.9 0.00 0.00 0.00 84
20260507002203 7 83 3.2 11.3 0.00 0.00 0.00 84
20260507001203 7 87 3.2 11.3 0.00 0.00 0.00 83
20260507000205 7 89 4.8 11.3 0.00 0.00 0.00 83
20260506235203 7 87 3.2 9.7 0.00 0.00 0.00 82
20260506234203 7 84 4.8 11.3 0.00 0.00 0.00 81
20260506233205 7 81 3.2 8.0 0.00 0.00 0.00 81
20260506232203 7 85 4.8 12.9 0.00 0.00 0.00 80
20260506231205 7 89 3.2 9.7 0.00 0.00 0.00 79
20260506230203 7 92 3.2 8.0 0.00 0.00 0.00 78
20260506225204 8 85 1.6 6.4 0.00 0.00 0.00 77
20260506224204 8 81 3.2 11.3 0.00 0.00 0.00 76
20260506223204 8 82 3.2 12.9 0.00 0.00 0.00 74
20260506222204 8 82 3.2 11.3 0.00 0.00 0.00 73
20260506221204 8 81 1.6 8.0 0.00 0.00 0.00 72
20260506220204 8 79 3.2 11.3 0.00 0.00 0.00 71
20260506215415 8 82 3.2 9.7 0.00 0.00 0.00 70
20260506214416 8 93 1.6 4.8 0.00 0.00 0.00 70
20260506213205 8 97 1.6 3.2 0.00 0.00 0.00 69
20260506212204 9 88 1.6 3.2 0.00 0.00 0.00 68
20260506211203 9 91 1.6 4.8 0.00 0.00 0.00 68
20260506210203 9 93 1.6 3.2 0.00 0.00 0.00 67
20260506205204 10 89 1.6 3.2 0.00 0.00 0.00 65
20260506204204 10 84 1.6 4.8 0.00 0.00 0.00 64
20260506203203 10 80 3.2 8.0 0.00 0.00 0.00 63
20260506202204 10 77 3.2 8.0 0.00 0.00 0.00 62
20260506201415 11 79 1.6 6.4 0.00 0.00 0.00 61
20260506200203 11 81 1.6 6.4 0.00 0.00 0.00 60
20260506195203 11 77 1.6 4.8 0.00 0.00 0.00 58
20260506194203 11 76 3.2 8.0 0.00 0.00 0.00 56
20260506193203 12 76 3.2 6.4 0.00 0.00 0.00 55
20260506192203 12 77 1.6 4.8 0.00 0.00 0.00 54
20260506191204 12 67 3.2 8.0 0.00 0.00 0.00 53
20260506190203 12 50 3.2 6.4 0.00 0.00 0.00 52
20260506185203 12 45 4.8 11.3 0.00 0.00 0.00 52
20260506184206 12 28 3.2 9.7 0.00 0.00 0.00 53
20260506183205 12 13 4.8 9.7 0.00 0.00 0.00 53
20260506182206 13 11 4.8 12.9 0.00 0.00 0.00 52
20260506181205 13 16 4.8 11.3 0.00 0.00 0.00 51
20260506180204 13 31 1.6 6.4 0.00 0.00 0.00 52
20260506175418 13 40 1.6 8.0 0.00 0.00 0.00 50
20260506174419 13 35 3.2 8.0 0.00 0.00 0.00 50
20260506173205 13 35 3.2 11.3 0.00 0.00 0.00 50
20260506172416 14 33 3.2 8.0 0.00 0.00 0.00 50
20260506171206 14 31 4.8 9.7 0.00 0.00 0.00 49
20260506170417 14 42 4.8 9.7 0.00 0.00 0.00 49
20260506165205 14 14 1.6 9.7 0.00 0.00 0.00 49
20260506164205 14 323 1.6 3.2 0.00 0.00 0.00 49
20260506163205 14 341 3.2 8.0 0.00 0.00 0.00 49
20260506162205 15 357 4.8 9.7 0.00 0.00 0.00 47
20260506161205 15 348 3.2 9.7 0.00 0.00 0.00 49
20260506160206 15 12 3.2 9.7 0.00 0.00 0.00 48
20260506155205 14 37 3.2 11.3 0.00 0.00 0.00 48
20260506154206 15 20 1.6 8.0 0.00 0.00 0.00 49
20260506153416 15 353 3.2 11.3 0.00 0.00 0.00 52